Alabaster, AL

6:36 PM CDT on September 29, 2016 (GMT -0500)
Shelby County

Weather History for KEET - January, 2013

Change the Weather History Date:

Thursday, January 17, 2013

  Actual Average Record
Temperature  
Mean Temperature 39 °F 44 °F  
Max Temperature 43 °F 54 °F 70 °F (1999)
Min Temperature 34 °F 34 °F 3 °F (1977)
Degree Days  
Heating Degree Days 26 21  
Month to date heating degree days 250 357  
Since 1 July heating degree days 1143 1377  
Moisture  
Dew Point 37 °F    
Average Humidity 90    
Maximum Humidity 100    
Minimum Humidity 79    
Precipitation  
Precipitation 0.26 in 0.18 in 1.74 in (1960)
Month to date precipitation 5.07 2.68  
Year to date precipitation 5.07 2.68  
Snow  
Snow 0.90 in - - ()
Month to date snowfall 0.9  
Since 1 July snowfall 0.9  
Snow Depth 0.00 in    
Sea Level Pressure  
Sea Level Pressure 30.03 in    
Wind  
Wind Speed 9 mph (NW)    
Max Wind Speed 22 mph    
Max Gust Speed 30 mph    
Visibility 4 miles    
Events Fog , Rain , Snow    
T = Trace of Precipitation, MM = Missing Value Source: NWS Daily Summary

Daily Weather History Graph

Daily Weather History Graph

Search for Another Location

Airport or City:

Trip Planner

Search our weather history database for the weather conditions in past years. The results will help you decide how hot, cold, wet, or windy it might be!

Date:

Astronomy

Jan. 17, 2013 Rise Set
Actual Time 6:49 AM CST 5:05 PM CST
Civil Twilight 6:23 AM CST 5:31 PM CST
Nautical Twilight 5:52 AM CST 6:02 PM CST
Astronomical Twilight 5:23 AM CST 6:31 PM CST
Moon 10:19 AM CST (1/17) 11:31 PM CST (1/17)
Length of Visible Light 11h 08m
Length of Day
10h 15m
Waxing Crescent, 38% of the Moon is Illuminated
Jan 17
Waxing Crescent
Jan 18
First Quarter
Jan 26
Full
Feb 3
Last Quarter
Feb 10
New

Hourly Weather History & Observations

Time (CST) Temp. Windchill Dew Point Humidity Pressure Visibility Wind Dir Wind Speed Gust Speed Precip Events Conditions
12:10 AM 42.8 °F 39.3 °F 41.0 °F 93% 29.98 in 2.0 mi NNW 5.8 mph - N/A   Overcast
12:19 AM 42.8 °F 39.3 °F 41.0 °F 93% 29.98 in 1.8 mi NNW 5.8 mph - N/A   Overcast
12:29 AM 42.8 °F 40.1 °F 41.0 °F 93% 29.98 in 2.0 mi North 4.6 mph - N/A   Overcast
12:39 AM 42.8 °F 40.1 °F 41.0 °F 93% 29.97 in 1.8 mi North 4.6 mph - N/A   Overcast
12:53 AM 42.1 °F 38.4 °F 41.0 °F 96% 29.98 in 2.0 mi NNW 5.8 mph - N/A   Overcast
1:38 AM 42.8 °F 41.1 °F 41.0 °F 93% 29.97 in 1.5 mi NNW 3.5 mph - N/A   Overcast
1:53 AM 43.0 °F - 42.1 °F 97% 29.96 in 1.5 mi Calm Calm - N/A   Overcast
2:53 AM 43.0 °F 38.8 °F 41.0 °F 93% 29.94 in 1.8 mi NW 6.9 mph - 0.04 in Rain Light Rain
3:05 AM 42.8 °F 38.6 °F 42.8 °F 100% 29.93 in 2.5 mi NW 6.9 mph - 0.00 in   Overcast
3:44 AM 42.8 °F 40.1 °F 42.8 °F 100% 29.92 in 2.5 mi WNW 4.6 mph - 0.00 in   Overcast
3:53 AM 42.1 °F 40.2 °F - N/A% 29.92 in 2.0 mi WNW 3.5 mph - 0.00 in   Overcast
4:21 AM 42.8 °F 40.1 °F - N/A% 29.92 in 1.8 mi WNW 4.6 mph - 0.01 in   Overcast
4:49 AM 42.8 °F 39.3 °F 42.8 °F 100% 29.92 in 2.5 mi NW 5.8 mph - 0.02 in   Overcast
4:53 AM 42.1 °F 38.4 °F 42.1 °F 100% 29.92 in 3.0 mi NW 5.8 mph - 0.02 in   Overcast
5:30 AM 42.8 °F 38.6 °F 42.8 °F 100% 29.92 in 2.5 mi WNW 6.9 mph - N/A   Overcast
6:53 AM 41.0 °F 39.0 °F 41.0 °F 100% 29.92 in 2.5 mi Variable 3.5 mph - 0.02 in Rain Light Rain
7:36 AM 41.0 °F 39.0 °F 41.0 °F 100% 29.91 in 3.0 mi WSW 3.5 mph - 0.01 in   Overcast
7:53 AM 41.0 °F 37.1 °F 41.0 °F 100% 29.93 in 3.0 mi Variable 5.8 mph - 0.01 in   Overcast
7:57 AM 41.0 °F 37.1 °F 41.0 °F 100% 29.93 in 2.5 mi Variable 5.8 mph - N/A   Overcast
8:09 AM 41.0 °F 37.1 °F 41.0 °F 100% 29.93 in 1.0 mi West 5.8 mph - 0.02 in Rain Light Rain
8:30 AM 41.0 °F 37.1 °F 41.0 °F 100% 29.93 in 1.2 mi West 5.8 mph - 0.04 in Rain Light Rain
8:53 AM 37.9 °F 27.1 °F 37.0 °F 97% 29.95 in 1.2 mi NW 23.0 mph 29.9 mph 0.06 in Rain Light Rain
9:05 AM 37.4 °F 28.9 °F 37.4 °F 100% 29.95 in 1.5 mi NW 13.8 mph 26.5 mph 0.00 in   Overcast
9:11 AM 35.6 °F 26.2 °F 35.6 °F 100% 29.95 in 3.0 mi NW 15.0 mph 27.6 mph 0.00 in   Overcast
9:26 AM 37.4 °F 29.3 °F 37.4 °F 100% 29.95 in 10.0 mi NW 12.7 mph 19.6 mph 0.00 in   Overcast
9:53 AM 36.0 °F 28.0 °F 35.1 °F 97% 29.96 in 10.0 mi NW 11.5 mph 21.9 mph 0.00 in   Overcast
10:53 AM 36.0 °F 27.1 °F 33.1 °F 89% 29.98 in 4.0 mi WNW 13.8 mph 20.7 mph 0.01 in   Overcast
11:06 AM 35.6 °F 27.1 °F 33.8 °F 93% 29.97 in 1.8 mi WNW 12.7 mph 18.4 mph 0.00 in Snow Light Snow
11:26 AM 35.6 °F 28.0 °F 33.8 °F 93% 29.98 in 1.2 mi NW 10.4 mph 17.3 mph 0.01 in Snow Light Snow
11:43 AM 35.6 °F 27.1 °F 33.8 °F 93% 29.97 in 1.5 mi WNW 12.7 mph 17.3 mph 0.02 in Snow Light Snow
11:53 AM 34.0 °F 25.0 °F 33.1 °F 96% 29.98 in 1.5 mi WNW 12.7 mph 21.9 mph 0.02 in Snow Light Snow
12:53 PM 34.0 °F 26.0 °F 32.0 °F 92% 29.99 in 0.8 mi WNW 10.4 mph 18.4 mph 0.00 in Snow Light Snow
1:53 PM 34.0 °F 26.6 °F 32.0 °F 92% 30.02 in 0.5 mi WNW 9.2 mph 20.7 mph 0.02 in Fog , Snow Snow
2:04 PM 33.8 °F 24.8 °F 32.0 °F 93% 30.02 in 0.2 mi WNW 12.7 mph 20.7 mph 0.02 in Fog , Snow Snow
2:13 PM 33.8 °F 27.0 °F 32.0 °F 93% 30.04 in 0.8 mi WNW 8.1 mph - 0.02 in Snow Light Snow
2:53 PM 34.0 °F 26.6 °F 32.0 °F 92% 30.08 in 1.0 mi NW 9.2 mph 17.3 mph 0.05 in Snow Light Snow
3:06 PM 35.6 °F 26.6 °F 33.8 °F 93% 30.07 in 3.0 mi WNW 13.8 mph 19.6 mph 0.00 in Snow Light Snow
3:19 PM 35.6 °F 26.6 °F 33.8 °F 93% 30.09 in 7.0 mi NW 13.8 mph 21.9 mph 0.00 in   Overcast
3:42 PM 37.4 °F 29.3 °F 33.8 °F 87% 30.11 in 9.0 mi WNW 12.7 mph 24.2 mph 0.00 in   Overcast
3:53 PM 37.0 °F 29.3 °F 34.0 °F 89% 30.15 in 9.0 mi NW 11.5 mph 20.7 mph 0.00 in   Overcast
4:10 PM 37.4 °F 29.3 °F 35.6 °F 93% 30.14 in 9.0 mi NW 12.7 mph 18.4 mph N/A   Overcast
4:17 PM 37.4 °F 28.5 °F 35.6 °F 93% 30.15 in 9.0 mi NW 15.0 mph 20.7 mph N/A   Mostly Cloudy
4:53 PM 37.9 °F 30.5 °F 35.1 °F 89% 30.17 in 8.0 mi NNW 11.5 mph - N/A   Clear
5:53 PM 39.0 °F 31.8 °F 35.1 °F 86% 30.24 in 10.0 mi NW 11.5 mph 19.6 mph N/A   Clear
6:53 PM 39.9 °F 32.9 °F 34.0 °F 79% 30.27 in 10.0 mi NNW 11.5 mph - N/A   Clear
7:53 PM 39.9 °F 31.4 °F 34.0 °F 79% 30.28 in 10.0 mi NW 16.1 mph 25.3 mph N/A   Clear
8:53 PM 39.9 °F 35.1 °F 33.1 °F 77% 30.32 in 10.0 mi NNW 6.9 mph - N/A   Clear
9:53 PM 39.0 °F 33.4 °F 33.1 °F 79% 30.34 in 10.0 mi NNW 8.1 mph - N/A   Clear
10:53 PM 39.0 °F 31.8 °F 33.1 °F 79% 30.34 in 10.0 mi NNW 11.5 mph - N/A   Clear
11:53 PM 39.0 °F 33.4 °F 33.1 °F 79% 30.36 in 9.0 mi North 8.1 mph - N/A   Clear